FREGAT R/B, 57518

Orbit data source: Space-Track

FREGAT R/B, 57518 is space debris in MEO originally from a launch on Mon, 07 Aug 2023 UTC launched from the Plesetsk Missile And Space Complex (PKMTR). Debris objects in space refer to the collection of defunct objects orbiting the Earth. Examples of debris include non-operational satellites, rocket bodies, and fragments generated from explosions, collisions, or faulty payload assembly.

Loading next visibility...
Identifier
57518, 2023-114B
Orbit
MEO
Country
Flag of CISCIS
Related business
Manufacturer
Lavochkin
Mission
Spacecraft
Bus & Motor
FREGAT, Unknown motor
Mass
1,000 kg wet, 1,000 kg dry
Launch date (UTC)
2023-08-07 (3 years ago)
Launch vehicle
Unknown
Launch site
Plesetsk Missile And Space Complex (PKMTR)
Object type
Payload
Rocket body
Debris
Shape & HBR
Cyl, 1.7 m
Radar Cross Section
8.354 m², Large (>1 m²)

Expand to show TLE details & history
Last TLE update: 3 days ago

TLE from 3 days ago
0 FREGAT R/B
1 57518U 23114B   26170.14973580 -.00000030  00000-0  00000-0 0  9994
2 57518  65.3065  72.2465 0024916 197.5711 162.3819  2.13950508 22403
Epoch: 2026-06-19T03:35Z
TLE epoch observation values (Epoch: 2026-06-19T03:35:37.173Z)
Latitude
0.00006°
Longitude
110.9717°
Altitude
19,123.445 km
Speed
3.949 km/s
True Right ascension
04h 49m 02s
True Declination
0° 00' 00"
Sunlit
Object was in daylight at epoch
Visualization orbit readout
Latitude
Unknown
Longitude
Unknown
Altitude
Unknown
Speed
Unknown
Apparent Right ascension
Unknown
Apparent Declination
Unknown
Sunlit
N/A
Visualization observer readout
Local Sidereal Time
21:27:32
Azimuth
Unknown
Elevation
Unknown
Doppler factor
Unknown
Orbital elements
Apogee altitude
19,125.391 km
Perigee altitude
18,998.618 km
Semi-major axis
25,440.141 km
Eccentricity
0.00249
Inclination
65.3065°
RAAN
72.2465°
Arg. of periapsis
197.5711°
True anomaly
162.46806°
Mean anomaly
162.3819°
Eccentric anomaly
162.42501°
Mean motion
0.53489 °/min
Orbital period
673.04 mins
BSTAR
0
Loading maneuver chart data...
Computing Atmospheric mass density...
Loading historical data...
Loading historical data...
Loading historical data...
Loading historical data...
Loading historical data...
Loading historical data...
Loading historical data...
Other satellites on launch #114 in the year 2023 (2023-08-07 UTC)

Documentation

Showing up to 5 results
|